Showing default

INTERCOSMOS 24, 20261

Orbit data source: Space-Track

INTERCOSMOS 24, 20261 is a payload satellite owned by IK (CIS) in LEO that was launched on Thu, 28 Sep 1989 UTC via a TSIKLON-3 launch vehicle from the Plesetsk Missile And Space Complex (PKMTR). Payload-class satellites include a variety of spacecraft equipped with specific instruments for various scientific and technological missions. These include communications satellites like Starlink; space stations such as the ISS; scientific satellites like the Hubble; Earth observation satellites from companies like Planet Labs, Umbra, and HawkEye 360; GPS; miniature CubeSats for education and research; and military/defense satellites.

Loading next visibility...
Identifier
20261, 1989-080A
Orbit
LEO
Country
Flag of CISCIS
Related business
Manufacturer
Yuzhnoe
Mission
Civil Science
Bus & Motor
AUOS, Unknown motor
Mass
1,400 kg wet, 1,400 kg dry
Launch date (UTC)
1989-09-28 (37 years ago)
Launch vehicle
TSIKLON-3
Launch site
Plesetsk Missile And Space Complex (PKMTR)
Object type
Payload
Rocket body
Debris
Shape & HBR
Cyl + 2 Pan + 2 Ant, 11.5 m
Radar Cross Section
14.428 m², Large (>1 m²)

Expand to show TLE details & history
Last TLE update: 9 hours ago

TLE from 9 hours ago
0 INTERCOSMOS 24
1 20261U 89080A   26095.25375713  .00000507  00000-0  14865-3 0  9990
2 20261  82.6016  87.1005 1187022 231.1120 117.8168 12.59591393670145
Epoch: 2026-04-05T06:05Z
TLE epoch observation values (Epoch: 2026-04-05T06:05:24.616Z)
Latitude
0.00002°
Longitude
162.18611°
Altitude
1,938.495 km
Speed
6.694 km/s
True Right ascension
05h 48m 24s
True Declination
0° 00' 00"
Sunlit
Object was in daylight at epoch
Visualization orbit readout
Latitude
Unknown
Longitude
Unknown
Altitude
Unknown
Speed
Unknown
Apparent Right ascension
Unknown
Apparent Declination
Unknown
Sunlit
N/A
Visualization observer readout
Local Sidereal Time
21:06:58
Azimuth
Unknown
Elevation
Unknown
Doppler factor
Unknown
Orbital elements
Apogee altitude
2,347.779 km
Perigee altitude
496.016 km
Semi-major axis
7,800.034 km
Eccentricity
0.1187
Inclination
82.6016°
RAAN
87.1005°
Arg. of periapsis
231.112°
True anomaly
128.99575°
Mean anomaly
117.8168°
Eccentric anomaly
123.4889°
Mean motion
3.15064 °/min
Orbital period
114.26 mins
BSTAR
0.00014865
Loading maneuver chart data...
Computing Atmospheric mass density...
Loading historical data...
Loading historical data...
Loading historical data...
Loading historical data...
Loading historical data...
Loading historical data...
Loading historical data...

Documentation

Showing up to 5 results
|